Content
SEND FEEDBACK

Daily
Averages
Monthly
Summary
France

LILLE, FRANCE


Home > Europe > France
Elevation: 171 feet     Latitude: 50 34N     Longitude: 003 06E

WEATHER
 
SELECT A DAY
Number of Records: 269,515;   Date Range: 7/1/96 - 8/10/14
 
SHARE

PRINT THIS DATA

[ ← Previous Day ]
WEATHER ALMANAC - FEBRUARY 17, 2013
[ Next Day → ]
[ °C ]   °F
Weather ElementAverageHighLow
Temperature37.9 °F44.6 °F (3:30 pm)32 °F (7:30 am)
Dewpoint36.4 °F41 °F (1:30 pm)32 °F (7:30 am)
Humidity94.5 %100 % (1:00 am)81 % (3:30 pm)
Barometer30.19 in30.26 in (1:00 am)30.15 in (3:00 pm)
Wind Speed5.4 mph10.4 mph (3:00 pm)
Weather ElementAverage
Visibility1.7 mi
Wind DirectionENE (84.2 °)

Weather ElementTotal
Precipitation---
Heating Degree Days26.7 (Base 65)
Averaged from 50 records on February 17, 2013
WEATHER CONDITIONS BREAKOUT
WIND DIRECTION BREAKOUT
WEATHER BY HOUR - FEBRUARY 17, 2013
[ °C ]   °F
Local TimeTemperatureDewpointHumidityBarometerVisibilityWind DirectionWind SpeedGust SpeedPrecipitationEventsConditions
1:00 AM38.0 °F37.0 °F96 %30.26 in0.0 miEast (80°)3.5 mphFogPartial Fog
1:00 AM37.4 °F37.4 °F100 %30.24 in0.5 miEast (80°)3.5 mphFogFog
1:30 AM37.4 °F37.4 °F100 %30.24 in0.8 miENE (70°)2.3 mphFogFog
2:00 AM37.4 °F37.4 °F100 %30.24 in0.2 miEast (80°)3.5 mphFogFog
2:30 AM37.4 °F35.6 °F93 %30.24 in0.1 miEast (80°)3.5 mphFogFog
3:00 AM35.6 °F35.6 °F100 %30.21 in0.1 miEast (90°)3.5 mphFogFog
3:30 AM35.6 °F35.6 °F100 %30.21 in0.1 miESE (110°)2.3 mphFogFog
4:00 AM35.6 °F35.6 °F100 %30.21 in0.1 miCalmFogFog
4:30 AM35.6 °F33.8 °F93 %30.21 in0.1 miEast (90°)3.5 mphFogFog
5:00 AM35.6 °F35.6 °F100 %30.21 in0.1 miENE (60°)3.5 mphFogFog
5:30 AM35.6 °F35.6 °F100 %30.21 in0.1 miEast (90°)3.5 mphFogFog
6:00 AM35.6 °F33.8 °F93 %30.21 in0.1 miEast (80°)3.5 mphFogFog
6:30 AM33.8 °F33.8 °F100 %30.21 in0.1 miEast (100°)3.5 mphFogFog
7:00 AM33.0 °F33.0 °F99 %30.23 in0.0 miENE (70°)3.5 mphFogHeavy Fog
7:00 AM33.8 °F33.8 °F100 %30.21 in0.1 miENE (70°)3.5 mphFogFog
7:30 AM32.0 °F32.0 °F100 %30.21 in0.1 miEast (80°)3.5 mphFogFog
8:00 AM32.0 °F32.0 °F100 %30.21 in0.1 miEast (80°)4.6 mphFogFog
8:30 AM32.0 °F32.0 °F100 %30.21 in0.1 miEast (80°)5.8 mphFogFog
9:00 AM33.8 °F33.8 °F100 %30.21 in0.1 miENE (70°)5.8 mphFogFog
9:30 AM33.8 °F33.8 °F100 %30.21 in0.1 miEast (80°)6.9 mphFogFog
10:00 AM33.8 °F33.8 °F100 %30.21 in0.1 miEast (80°)6.9 mphFogFog
10:30 AM35.6 °F35.6 °F100 %30.21 in0.1 miEast (80°)6.9 mphFogFog
11:00 AM35.6 °F35.6 °F100 %30.21 in0.1 miEast (80°)6.9 mphFogFog
11:30 AM37.4 °F37.4 °F100 %30.21 in0.4 miEast (100°)5.8 mphFogFog
12:00 PM39.2 °F39.2 °F100 %30.21 in1.1 miEast (80°)8.1 mphMostly Cloudy
12:30 PM39.2 °F39.2 °F100 %30.21 in1.9 miEast (90°)8.1 mphMostly Cloudy
1:00 PM39.0 °F39.0 °F100 %30.22 in3.0 miEast (80°)6.9 mphMist
1:00 PM39.2 °F39.2 °F100 %30.21 inEast (80°)6.9 mphMostly Cloudy
1:30 PM41.0 °F41.0 °F100 %30.18 inENE (60°)8.1 mphScattered Clouds
2:00 PM42.8 °F41.0 °F93 %30.18 in4.3 miEast (80°)8.1 mphScattered Clouds
2:30 PM42.8 °F39.2 °F87 %30.18 in5.0 miENE (70°)8.1 mphScattered Clouds
3:00 PM42.8 °F39.2 °F87 %30.15 in5.0 miEast (80°)10.4 mphPartly Cloudy
3:30 PM44.6 °F39.2 °F81 %30.15 in5.0 miEast (80°)9.2 mphPartly Cloudy
4:00 PM44.6 °F39.2 °F81 %30.15 in3.7 miEast (80°)10.4 mphPartly Cloudy
4:30 PM44.6 °F39.2 °F81 %30.15 in5.0 miEast (90°)9.2 mphPartly Cloudy
5:00 PM44.6 °F39.2 °F81 %30.15 in4.3 miEast (90°)8.1 mphScattered Clouds
5:30 PM42.8 °F37.4 °F81 %30.15 in4.3 miEast (100°)6.9 mphScattered Clouds
6:00 PM42.8 °F37.4 °F81 %30.15 in3.7 miEast (90°)9.2 mphScattered Clouds
6:30 PM41.0 °F37.4 °F87 %30.15 in3.7 miSouth (180°)5.8 mphMostly Cloudy
7:00 PM39.0 °F36.0 °F84 %30.18 in3.0 miSSE (150°)1.2 mphMostly Cloudy
7:00 PM39.2 °F35.6 °F87 %30.15 in3.1 miSSE (160°)1.2 mphMostly Cloudy
7:30 PM39.2 °F37.4 °F93 %30.15 in3.1 miESE (120°)1.2 mphMostly Cloudy
8:00 PM39.2 °F37.4 °F93 %30.15 in3.1 miVariable1.2 mphMostly Cloudy
8:30 PM39.2 °F37.4 °F93 %30.15 in3.1 miEast (90°)3.5 mphMostly Cloudy
9:00 PM39.2 °F35.6 °F87 %30.15 inEast (80°)5.8 mphScattered Clouds
9:30 PM37.4 °F35.6 °F93 %30.15 in2.2 miEast (80°)5.8 mphScattered Clouds
10:00 PM37.4 °F35.6 °F93 %30.15 in2.2 miEast (80°)5.8 mphScattered Clouds
10:30 PM37.4 °F35.6 °F93 %30.15 in2.2 miEast (80°)8.1 mphScattered Clouds
11:00 PM37.4 °F35.6 °F93 %30.15 in2.2 miEast (80°)6.9 mphScattered Clouds
11:30 PM35.6 °F35.6 °F100 %30.15 in1.9 miEast (80°)8.1 mphScattered Clouds
Hourly data recorded from LFQQ, located miles away from Lille, France







STORIES FROM OUR PARTNERS